Location: Tyler Bend Campground
(35.9875°N, 92.7606°W)
Time: 00:00:18
(UTC-05:00)

CZ-2C R/B - Visible Passes

Search period start: 29 September 2016 00:00
Search period end: 09 October 2016 00:00
Orbit: 668 x 786 km, 98.1° (Epoch: 28 September)

Date Brightness Start Highest point End Pass type
(mag) Time Alt. Az. Time Alt. Az. Time Alt. Az.
29 Sep 5.7 06:27:47 10° ENE 06:30:07 14° E 06:32:26 10° ESE visible
30 Sep 5.5 20:02:38 10° SW 20:05:46 17° W 20:08:51 10° NW visible
01 Oct 5.6 06:30:00 10° ENE 06:32:35 15° E 06:35:10 10° SE visible
01 Oct 3.4 19:12:51 10° S 19:17:40 53° W 19:22:21 10° NNW visible
02 Oct 5.5 20:05:22 10° SW 20:08:15 16° W 20:11:05 10° WNW visible
03 Oct 5.6 06:32:14 10° NE 06:35:02 16° E 06:37:52 10° SE visible
03 Oct 3.5 19:15:24 10° S 19:20:08 49° W 19:24:44 10° NNW visible
04 Oct 5.6 20:08:08 10° SW 20:10:43 14° W 20:13:17 10° WNW visible
05 Oct 5.6 06:34:29 10° NE 06:37:31 17° E 06:40:33 10° SE visible
05 Oct 3.6 19:17:56 10° S 19:22:35 46° W 19:27:07 10° NNW visible
06 Oct 5.6 20:10:56 10° WSW 20:13:12 13° W 20:15:27 10° WNW visible
07 Oct 5.5 06:36:45 10° NE 06:39:58 18° E 06:43:13 10° SE visible
07 Oct 3.8 19:20:28 10° S 19:25:02 43° W 19:29:31 10° NNW visible
08 Oct 5.7 20:13:48 10° WSW 20:15:41 12° W 20:17:32 10° WNW visible
